COSMOS 2488

导读 | 星芒AI

COSMOS 2488 是俄罗斯于2013年发射的一颗军用卫星,属于GLONASS导航系统的一部分,用于增强全球定位和导航能力。该卫星运行在中地球轨道,提供高精度的定位服务,支持俄罗斯的军事和民用应用。COSMOS 2488 的发射体现了俄罗斯在空间技术和国家安全领域的持续发展。

基本信息
目录编号:
39483
目录名称:
COSMOS 2488
国际标识:
2013-076A
轨道中心:
EARTH
卫星名称:
COSMOS 2488
卫星全名:
--
卫星状态:
在轨 (已飞行4373 天)
发射日期:
2013-12-25 UTC
国别 :
俄罗斯(独联体) (CIS)
星等 :
--
轨道信息
数据来源 国际轨道数据 AOE轨道数据
星历时间 2025-12-15T06:37:11+0800
19小时前
查看轨道信息
2025-12-15T15:00:00+0800
11小时前
查看轨道信息
半长轴 7872.597km 7872.577km
偏心率 0.001955 0.0019656
轨道倾角 82.484° 82.484°
近地点辐角 133.917° 133.587°
升交点赤经 283.506° 283.288°
平近点角 226.353° 348.281°
近地点 1479.071km 1478.967km
远地点 1509.853km 1509.917km
周期 115.861分钟 115.860分钟
每日圈数 12.428703 12.428749
详细信息
使用方式:
暂无
2D轨道图
3D轨道图
轨道高度分析图
轨道倾角分析图
轨道综合分析图
查看轨道综合分析图